Location: Unspecified
(44.0704°N, 88.6889°W)
Time: 11:07:40
(UTC+02:00)

Vanguard 2 Rocket - Pass Details

Date: 09 August 2020
Orbit: 554 x 3326 km, 32.9° (Epoch: 22 September)

Event Time Altitude Azimuth Distance (km) Brightness Sun altitude
Rises 07:11:50 0° 271° (W) 5,281 11.0 -29.2°
Reaches altitude 10° 07:15:17 10° 262° (W) 4,639 10.5 -29.3°
Enters shadow 07:27:04 34° 205° (SSW) 3,971 9.6 -29.7°
